Starlink 5605

operational
NORAD ID: 55411 Int'l Des: 2023-014 Owner: SPXS Country: US Constellation: starlink
LEOCIRCULAR

关于 Starlink 5605

正在加载描述...

实时位置

正在加载3D地球...

即将过境

高度历史

Altitude vs Time

uPlot chart will show altitude changes over time

两行轨道根数

1 55411U 23014W 25302.52587890 .00004255 00000-0 36417-3 0 9992
2 55411 70.0011 35.3597 0003151 269.7940 90.2858 14.98335157152406
Epoch: Oct 29, 2025 • Age: 17 hours

当前状态

高度 585.8 km
速度 7.57 km/s
星下点 -41.27°S, 114.53°W
发射日期 Jan 31, 2023
运行时间 2.7 years
类型 internet

技术详情

分类 Payload
质量 305.00 kg
干质量 290.00 kg
总质量 305.00 kg
长度 0.20 m
直径 2.80 m
跨度 9.00 m
形状 Box + pan
制造商 SPXS
平台类型 Starlink
阶段状态 In Orbit
所有者/国家 SPXS/US

大型星座

Loading constellations...